Weather History for Abilene, TX

Change the Weather History Date:

Friday, October 5, 2012

  Actual Average Record
Temperature  
Mean Temperature 65 °F 69 °F  
Max Temperature 75 °F 81 °F 99 °F (1937)
Min Temperature 55 °F 58 °F 39 °F (1932)
Degree Days  
Heating Degree Days 0 2  
Month to date heating degree days 0 6  
Since 1 July heating degree days 6 17  
Cooling Degree Days 0 6  
Month to date cooling degree days 16 31  
Year to date cooling degree days 2889 2302  
Growing Degree Days 16 (Base 50)    
Moisture  
Dew Point 53 °F    
Average Humidity 70    
Maximum Humidity 86    
Minimum Humidity 53    
Precipitation  
Precipitation 0.00 in 0.09 in 2.60 in (1986)
Month to date precipitation 0.00 0.43  
Year to date precipitation 22.14 19.63  
Sea Level Pressure  
Sea Level Pressure 30.06 in    
Wind  
Wind Speed 6 mph (North)    
Max Wind Speed 13 mph    
Max Gust Speed 15 mph    
Visibility 10 miles    
Events      
T = Trace of Precipitation, MM = Missing Value Source: NWS Daily Summary

Daily Weather History Graph

Daily Weather History Graph

Search for Another Location

Airport:

Trip Planner

Search our weather history database for the weather conditions in past years. The results will help you decide how hot, cold, wet, or windy it might be!

Date:

Astronomy

Oct. 05, 2012 Rise Set
Actual Time 7:35 AM CDT 7:17 PM CDT
Civil Twilight 7:11 AM CDT 7:42 PM CDT
Nautical Twilight 6:42 AM CDT 8:10 PM CDT
Astronomical Twilight 6:14 AM CDT 8:39 PM CDT
Moon 10:58 PM CDT (10/5) 12:29 PM CDT (10/5)
Length of Visible Light 12h 30m
Length of Day
11h 41m
Waning Gibbous, 74% of the Moon is Illuminated
Oct 5
Waning Gibbous
Oct 8
Last Quarter
Oct 15
New
Oct 21
First Quarter
Oct 29
Full

Hourly Weather History & Observations

Time (CDT) Temp. Dew Point Humidity Pressure Visibility Wind Dir Wind Speed Gust Speed Precip Events Conditions
12:52 AM 59.0 °F 52.0 °F 78% 30.10 in 10.0 mi NNW 6.9 mph - N/A   Overcast
1:52 AM 57.9 °F 52.0 °F 81% 30.08 in 10.0 mi NNW 3.5 mph - N/A   Partly Cloudy
3:42 AM 57.2 °F 53.6 °F 88% 30.13 in 9.0 mi NNW 3.5 mph - N/A   Mostly Cloudy
3:52 AM 57.0 °F 53.1 °F 87% 30.09 in 9.0 mi NNW 3.5 mph - N/A   Overcast
4:52 AM 57.0 °F 53.1 °F 87% 30.09 in 10.0 mi NW 3.5 mph - N/A   Overcast
5:52 AM 57.9 °F 53.1 °F 84% 30.08 in 10.0 mi North 5.8 mph - N/A   Overcast
6:52 AM 59.0 °F 52.0 °F 78% 30.08 in 10.0 mi North 6.9 mph - N/A   Overcast
7:52 AM 60.1 °F 50.0 °F 69% 30.09 in 10.0 mi North 6.9 mph - N/A   Overcast
8:52 AM 60.1 °F 51.1 °F 72% 30.11 in 10.0 mi North 6.9 mph - N/A   Overcast
11:52 AM 64.9 °F 52.0 °F 63% 30.10 in 10.0 mi Calm Calm - N/A   Overcast
12:52 PM 68.0 °F 54.0 °F 61% 30.09 in 10.0 mi Variable 3.5 mph - N/A   Overcast
1:52 PM 70.0 °F 55.0 °F 59% 30.06 in 10.0 mi Calm Calm - N/A   Overcast
2:52 PM 72.0 °F 55.9 °F 57% 30.03 in 10.0 mi North 3.5 mph - N/A   Overcast
3:33 PM 73.4 °F 57.2 °F 57% 30.06 in 10.0 mi North 5.8 mph - N/A   Scattered Clouds
3:52 PM 73.9 °F 57.0 °F 55% 30.01 in 10.0 mi Calm Calm - N/A   Scattered Clouds
4:52 PM 75.0 °F 57.0 °F 53% 29.99 in 10.0 mi NNE 9.2 mph - N/A   Clear
5:52 PM 73.0 °F 55.9 °F 55% 29.99 in 10.0 mi North 11.5 mph - N/A   Clear
6:52 PM 70.0 °F 55.0 °F 59% 29.99 in 10.0 mi NE 8.1 mph - N/A   Clear
7:52 PM 64.9 °F 54.0 °F 68% 30.01 in 10.0 mi NNE 9.2 mph - N/A   Clear
8:52 PM 62.1 °F 53.1 °F 72% 30.04 in 10.0 mi North - - N/A   Clear
9:52 PM 57.9 °F 52.0 °F 81% 30.07 in 10.0 mi NNE 13.8 mph - N/A   Clear
10:52 PM 57.0 °F 51.1 °F 81% 30.08 in 10.0 mi NE 10.4 mph 17.3 mph N/A   Clear
11:52 PM 55.0 °F 50.0 °F 83% 30.09 in 10.0 mi NE 9.2 mph - N/A   Scattered Clouds